DW7784 Le Mans FR current weather conditions

sailwx.info

Wind from 207 at 0 knots gusting 0

Air temperature 3.3° C
Dewpoint 3.1° C

Last reported at 2019-Nov-15 20:02 UTC.
Time now 2019-Nov-15 20:35 UTC

Location: N 48°11' W 000°06'.
View on Google Maps.

See reports from other nearby stations

  
Tides and Currents Weather Stations Pressure Air Temp Water Temp Dewpoint Dewpoint Depression Visibility Wind Speed Wind Dir Waves Ship Positions
date/time (UTC)wind fromknots sea level pressurealtimeterstation pressurevisibilityair tempwater tempwave heightnotes
2019-Nov-15 20:02 207 0 gusting 0 3.3
2019-Nov-15 19:52 180 0 gusting 1
2019-Nov-15 19:42 202 3.3
2019-Nov-15 19:32 201 0 gusting 1 3.3
2019-Nov-15 19:22 199 1 gusting 1 3.3
2019-Nov-15 19:12 144 1 gusting 2 3.3
2019-Nov-15 19:02 191 0 gusting 2
2019-Nov-15 18:52 163 1 gusting 2 3.3
2019-Nov-15 18:42 180 3.3
2019-Nov-15 18:32 202 0 gusting 1 3.3
2019-Nov-15 18:22 190 0 gusting 1
2019-Nov-15 18:12 247 0 gusting 0 3.3
2019-Nov-15 18:02 3.3
2019-Nov-15 17:52 218 0 gusting 0 3.3
2019-Nov-15 17:42 207 0 gusting 1 3.3
2019-Nov-15 17:32 238 1 gusting 3 3.3
2019-Nov-15 17:22 213 1 gusting 1 3.3
2019-Nov-15 17:12 253 1 gusting 4 3.3
2019-Nov-15 17:02 289 1 gusting 1 3.3
2019-Nov-15 16:52 255 1 gusting 1 3.3
2019-Nov-15 16:42 269 1 gusting 3 3.3
2019-Nov-15 16:32 212 0 gusting 2
2019-Nov-15 16:22 267 2 gusting 2 3.3
2019-Nov-15 16:12 180 1 gusting 3 3.9
2019-Nov-15 16:02 191 1 gusting 3
2019-Nov-15 15:52 169 0 gusting 1
2019-Nov-15 15:42 227 0 gusting 1
2019-Nov-15 15:32 232 1 gusting 2
2019-Nov-15 15:22 217 1 gusting 2
2019-Nov-15 15:12 268 1 gusting 4
2019-Nov-15 15:03 247 2 gusting 3
2019-Nov-15 14:53 157 1
2019-Nov-15 14:42 242 2 gusting 2
2019-Nov-15 14:32 247 0 gusting 1
2019-Nov-15 14:22 193 0 gusting 2
2019-Nov-15 14:12 230 0 gusting 1
2019-Nov-15 14:02 220 1 gusting 2
2019-Nov-15 13:52 262 0 gusting 2
2019-Nov-15 13:42 243 0 gusting 1
2019-Nov-15 13:32
2019-Nov-15 13:22 215 1 gusting 2
2019-Nov-15 13:12 265 0 gusting 1
2019-Nov-15 13:02 205 0 gusting 2
2019-Nov-15 12:52 234 1 gusting 2
2019-Nov-15 12:42 164 1 gusting 2
2019-Nov-15 12:32 258
2019-Nov-15 12:22 234 0 gusting 1
2019-Nov-15 12:12 245 0 gusting 1
2019-Nov-15 12:02 202 0 gusting 0
2019-Nov-15 11:52 215 0 gusting 2
2019-Nov-15 11:42 202
2019-Nov-15 11:32 180
2019-Nov-15 11:22
2019-Nov-15 11:12 202
2019-Nov-15 11:02 247
2019-Nov-15 10:52 247 0 gusting 0
2019-Nov-15 10:42 247 0 gusting 1
2019-Nov-15 10:32 213 0 gusting 2
2019-Nov-15 10:22
2019-Nov-15 10:12 233 2 gusting 3
2019-Nov-15 10:02 214 0 gusting 1
2019-Nov-15 09:52 249 0 gusting 1
2019-Nov-15 09:42 253 0 gusting 1
2019-Nov-15 09:32 179 0 gusting 0
2019-Nov-15 09:22 247 1 gusting 2
2019-Nov-15 09:12 247 1 gusting 2
2019-Nov-15 09:02 270
2019-Nov-15 08:52 238 1 gusting 2
2019-Nov-15 08:42 238 0 gusting 1
2019-Nov-15 08:32 242 2 gusting 4
2019-Nov-15 08:22 274 2 gusting 3
2019-Nov-15 08:12 268 2 gusting 5
2019-Nov-15 08:02 190 1 gusting 2
2019-Nov-15 07:52 247 0 gusting 3
2019-Nov-15 07:42 262 0 gusting 1
2019-Nov-15 07:32 215 1 gusting 1
2019-Nov-15 07:22 235 0 gusting 1
2019-Nov-15 07:12 247 1 gusting 3
2019-Nov-15 07:02 256 1 gusting 2
2019-Nov-15 06:52 246 1 gusting 4
2019-Nov-15 06:42 230 1 gusting 2
2019-Nov-15 06:32 213 2 gusting 5
2019-Nov-15 06:22 231 1 gusting 3
2019-Nov-15 06:12 277 2 gusting 3
2019-Nov-15 06:02 218 3 gusting 4
2019-Nov-15 05:52 247 2 gusting 3
2019-Nov-15 05:42 257 0 gusting 1
2019-Nov-15 05:32 233 1 gusting 3
2019-Nov-15 05:22 270 2 gusting 5
2019-Nov-15 05:12 219 1 gusting 2
2019-Nov-15 05:02 274 1 gusting 2
2019-Nov-15 04:52 284 2 gusting 4
2019-Nov-15 04:42 247 0 gusting 2
2019-Nov-15 04:32 248 1 gusting 3
2019-Nov-15 04:22 220 1 gusting 4
2019-Nov-15 04:12 235 1 gusting 5
2019-Nov-15 04:02 252 1 gusting 3
2019-Nov-15 03:52 262 0 gusting 1
2019-Nov-15 03:42 259 1 gusting 2
2019-Nov-15 03:32 238 0 gusting 1
2019-Nov-15 03:22 276 0 gusting 2
2019-Nov-15 03:12 284 0 gusting 1
2019-Nov-15 03:02 252 0 gusting 3
2019-Nov-15 02:52 247 0 gusting 1
2019-Nov-15 02:42 264
2019-Nov-15 02:32
2019-Nov-15 02:22
2019-Nov-15 02:12
2019-Nov-15 02:02 279 0 gusting 1
2019-Nov-15 01:52 292 0 gusting 1
2019-Nov-15 01:42
2019-Nov-15 01:32 247
2019-Nov-15 01:22 292 0 gusting 0
2019-Nov-15 01:12
2019-Nov-15 01:02 337
2019-Nov-15 00:52 254 0 gusting 2
2019-Nov-15 00:42
2019-Nov-15 00:32 270 1 gusting 2
2019-Nov-15 00:22
2019-Nov-15 00:12 270
2019-Nov-15 00:02
2019-Nov-14 23:52 270
2019-Nov-14 23:42
2019-Nov-14 23:32 292
2019-Nov-14 23:22 298 1 gusting 1
2019-Nov-14 23:12
2019-Nov-14 23:02
2019-Nov-14 22:52
2019-Nov-14 22:42
2019-Nov-14 22:32
2019-Nov-14 22:22
2019-Nov-14 22:12
2019-Nov-14 22:02 292
2019-Nov-14 21:52
2019-Nov-14 21:42
2019-Nov-14 21:32
2019-Nov-14 21:22
2019-Nov-14 21:12
2019-Nov-14 21:02
2019-Nov-14 20:52
2019-Nov-14 20:42
2019-Nov-14 20:32
2019-Nov-14 20:22
2019-Nov-14 20:12
2019-Nov-14 20:02
2019-Nov-14 19:52
2019-Nov-14 19:42
2019-Nov-14 19:32
2019-Nov-14 19:22
2019-Nov-14 19:12
2019-Nov-14 19:04
2019-Nov-14 18:56
2019-Nov-14 18:46
2019-Nov-14 18:36
2019-Nov-14 18:26
2019-Nov-14 18:16
2019-Nov-14 18:06
2019-Nov-14 17:56
2019-Nov-14 17:46
2019-Nov-14 17:36
2019-Nov-14 17:26
2019-Nov-14 17:16
2019-Nov-14 17:06
2019-Nov-14 16:56
2019-Nov-14 16:46
2019-Nov-14 16:36
2019-Nov-14 16:26
2019-Nov-14 16:16
2019-Nov-14 16:06
2019-Nov-14 15:56
2019-Nov-14 15:46
2019-Nov-14 15:36
2019-Nov-14 15:26
2019-Nov-14 15:16 022
2019-Nov-14 15:06 036 1 gusting 1
2019-Nov-14 14:56 157
2019-Nov-14 14:46
2019-Nov-14 14:36 022 0 gusting 4
2019-Nov-14 14:26 090 1 gusting 1
2019-Nov-14 14:16 017 0 gusting 2
2019-Nov-14 14:06 037
2019-Nov-14 13:56 071 0 gusting 0
2019-Nov-14 13:46 045 0 gusting 1
2019-Nov-14 13:36
2019-Nov-14 13:26
2019-Nov-14 13:16
2019-Nov-14 13:06
2019-Nov-14 12:56
2019-Nov-14 12:46
2019-Nov-14 12:36 028 0 gusting 2
2019-Nov-14 12:26
2019-Nov-14 12:16
2019-Nov-14 12:06
2019-Nov-14 11:56 180
2019-Nov-14 11:46 112 0 gusting 0
2019-Nov-14 11:36 157
2019-Nov-14 11:26
2019-Nov-14 11:16 135
2019-Nov-14 11:06 111 0 gusting 2
2019-Nov-14 10:56
2019-Nov-14 10:46 112
2019-Nov-14 10:36 157
2019-Nov-14 10:26 131 1 gusting 1
2019-Nov-14 10:16
2019-Nov-14 10:06 119
2019-Nov-14 09:56 112 0 gusting 1
2019-Nov-14 09:46 081 0 gusting 1
2019-Nov-14 09:36
2019-Nov-14 09:26
2019-Nov-14 09:16
2019-Nov-14 09:06 172 0 gusting 2
2019-Nov-14 08:56
2019-Nov-14 08:46 124 1 gusting 1
2019-Nov-14 08:36 180
2019-Nov-14 08:26 157 1 gusting 1
2019-Nov-14 08:16 116 1 gusting 5
2019-Nov-14 08:06 105 1 gusting 2
2019-Nov-14 07:56 090 1 gusting 1
2019-Nov-14 07:46 112
2019-Nov-14 07:36 157
2019-Nov-14 07:26 157
2019-Nov-14 07:16 130 0 gusting 0
2019-Nov-14 07:06 157
2019-Nov-14 06:56 157
2019-Nov-14 06:46 104 0 gusting 1
2019-Nov-14 06:36 119 1 gusting 2
2019-Nov-14 06:26 127 1 gusting 2
2019-Nov-14 06:16 112 0 gusting 1
2019-Nov-14 06:06 189
2019-Nov-14 05:56 176 0 gusting 0
2019-Nov-14 05:46 164 0 gusting 1
2019-Nov-14 05:36 107 0 gusting 0
2019-Nov-14 05:26
2019-Nov-14 05:16
2019-Nov-14 05:06
2019-Nov-14 04:56 102
2019-Nov-14 04:46 146 1 gusting 1
2019-Nov-14 04:36 171 0 gusting 1
2019-Nov-14 04:26 127 1 gusting 2
2019-Nov-14 04:16 123 0 gusting 1
2019-Nov-14 04:06 157 0 gusting 2
2019-Nov-14 03:56 112 0 gusting 0
2019-Nov-14 03:46 127 1 gusting 2
2019-Nov-14 03:36 129 1 gusting 1
2019-Nov-14 03:26 157 1 gusting 1
2019-Nov-14 03:16 142 0 gusting 1
2019-Nov-14 03:06 146 0 gusting 1
2019-Nov-14 02:56 136 1 gusting 2
2019-Nov-14 02:46 112 1 gusting 3
2019-Nov-14 02:36 094 0 gusting 1
2019-Nov-14 02:26 122 1 gusting 1
2019-Nov-14 02:16 111 2 gusting 4
2019-Nov-14 02:06 135 3 gusting 5
2019-Nov-14 01:56 135 2 gusting 2
2019-Nov-14 01:46 125 3 gusting 5
2019-Nov-14 01:36 123 2 gusting 4
2019-Nov-14 01:26 143 1 gusting 2
2019-Nov-14 01:16 100 2 gusting 2
2019-Nov-14 01:06 112 1 gusting 5
2019-Nov-14 00:56 127 2 gusting 4
2019-Nov-14 00:46 090 2 gusting 4
2019-Nov-14 00:36 125 1 gusting 4
2019-Nov-14 00:26 202 1 gusting 1
2019-Nov-14 00:16 168 0 gusting 1
2019-Nov-14 00:06 157 0 gusting 0
2019-Nov-13 23:56 122 1 gusting 2
2019-Nov-13 23:46 135 1 gusting 1
2019-Nov-13 23:36 120 0 gusting 2
2019-Nov-13 23:26 117 1 gusting 3
2019-Nov-13 23:16 135 2 gusting 4
2019-Nov-13 23:06 220 0 gusting 0
2019-Nov-13 22:56 121 1 gusting 1
2019-Nov-13 22:46 146 1 gusting 3
2019-Nov-13 22:36 105 1 gusting 2
2019-Nov-13 22:26 117 2 gusting 4
2019-Nov-13 22:16 159 1 gusting 6
2019-Nov-13 22:06 139 1 gusting 1
2019-Nov-13 21:56 127 2 gusting 4
2019-Nov-13 21:46 141 1 gusting 2
2019-Nov-13 21:36 117 5 gusting 8
2019-Nov-13 21:26 135 2 gusting 4
2019-Nov-13 21:16 099 2 gusting 5
2019-Nov-13 21:06 121 2 gusting 3
2019-Nov-13 20:56 103 2 gusting 2
2019-Nov-13 20:46 161 1 gusting 4
2019-Nov-13 20:36 310 0 gusting 1
2019-Nov-13 20:26 291 1 gusting 2
2019-Nov-13 20:16 011 0 gusting 0
2019-Nov-13 20:06 067 4 gusting 5